Weather History for KUNV - August, 2014

Change the Weather History Date:

Sunday, August 10, 2014

  Actual Average Record
Temperature  
Mean Temperature 66 °F -  
Max Temperature 78 °F 81 °F 94 °F (1949)
Min Temperature 53 °F 60 °F 44 °F (1927)
Growing Degree Days 16 (Base 50)    
Moisture  
Dew Point 58 °F    
Average Humidity 81    
Maximum Humidity 100    
Minimum Humidity 44    
Precipitation  
Precipitation 0.00 in - - ()
Sea Level Pressure  
Sea Level Pressure 30.15 in    
Wind  
Wind Speed 1 mph (ENE)    
Max Wind Speed 8 mph    
Max Gust Speed -    
Visibility 9 miles    
Events Fog    
Averages and records for this station are not official NWS values.
T = Trace of Precipitation, MM = Missing Value Source: NWS Daily Summary

Daily Weather History Graph

Daily Weather History Graph

Search for Another Location

Airport or City:

Trip Planner

Search our weather history database for the weather conditions in past years. The results will help you decide how hot, cold, wet, or windy it might be!

Date:

Astronomy

Aug. 10, 2014 Rise Set
Actual Time 6:16 AM EDT 8:16 PM EDT
Civil Twilight 5:46 AM EDT 8:46 PM EDT
Nautical Twilight 5:09 AM EDT 9:22 PM EDT
Astronomical Twilight 4:30 AM EDT 10:02 PM EDT
Moon 8:01 PM EDT (8/10) 6:06 AM EDT (8/10)
Length of Visible Light 14h 59m
Length of Day
13h 59m
Full, 100% of the Moon is Illuminated
Aug 10
Full
Aug 10
Full
Aug 17
Last Quarter
Aug 25
New
Sep 2
First Quarter

Hourly Weather History & Observations

Time (EDT) Temp. Dew Point Humidity Pressure Visibility Wind Dir Wind Speed Gust Speed Precip Events Conditions
12:15 AM 62.2 °F 57.4 °F 84% 30.16 in 10.0 mi Calm Calm - N/A   Clear
12:35 AM 61.7 °F 58.3 °F 89% 30.16 in 10.0 mi Calm Calm - N/A   Clear
12:55 AM 60.6 °F 57.2 °F 88% 30.16 in 10.0 mi Calm Calm - N/A   Scattered Clouds
1:15 AM 59.7 °F 57.2 °F 91% 30.17 in 10.0 mi Calm Calm - N/A   Scattered Clouds
1:35 AM 59.7 °F 57.4 °F 92% 30.16 in 10.0 mi NNE 4.6 mph - N/A   Scattered Clouds
1:55 AM 59.0 °F 57.2 °F 94% 30.16 in 10.0 mi Calm Calm - N/A   Scattered Clouds
2:15 AM 58.1 °F 56.7 °F 95% 30.16 in 10.0 mi Calm Calm - N/A   Scattered Clouds
2:35 AM 58.1 °F 57.2 °F 97% 30.16 in 7.0 mi Calm Calm - N/A   Mostly Cloudy
2:55 AM 59.9 °F 57.7 °F 93% 30.16 in 10.0 mi Calm Calm - N/A   Overcast
3:15 AM 59.0 °F 57.6 °F 95% 30.16 in 10.0 mi Calm Calm - N/A   Mostly Cloudy
3:35 AM 57.0 °F 56.3 °F 97% 30.16 in 5.0 mi Calm Calm - N/A   Scattered Clouds
3:55 AM 57.2 °F 56.7 °F 98% 30.16 in 3.0 mi Calm Calm - N/A   Clear
4:15 AM 57.2 °F 57.0 °F 99% 30.16 in 5.0 mi Calm Calm - N/A   Clear
4:35 AM 57.4 °F 56.8 °F 98% 30.16 in 5.0 mi Calm Calm - N/A   Clear
4:55 AM 57.2 °F 56.5 °F 97% 30.16 in 7.0 mi Calm Calm - N/A   Clear
5:15 AM 56.3 °F 55.9 °F 99% 30.16 in 1.2 mi Calm Calm - N/A   Mist
5:35 AM 56.3 °F 55.8 °F 98% 30.16 in 4.0 mi Calm Calm - N/A   Clear
5:53 AM 57.2 °F 55.4 °F 94% 30.16 in 10.0 mi Calm Calm - N/A Fog Shallow Fog
6:53 AM 55.4 °F 55.4 °F 100% 30.18 in 10.0 mi Calm Calm - N/A Fog Shallow Fog
7:00 AM 53.6 °F 53.6 °F 100% 30.18 in 0.5 mi Calm Calm - N/A Fog Fog
7:30 AM 55.4 °F 55.4 °F 100% 30.18 in 10.0 mi Calm Calm - N/A Fog Shallow Fog
7:53 AM 57.2 °F 57.2 °F 100% 30.18 in 10.0 mi Calm Calm - N/A Fog Shallow Fog
8:53 AM 60.8 °F 59.0 °F 94% 30.19 in 10.0 mi Calm Calm - N/A Fog Shallow Fog
9:53 AM 66.2 °F 59.0 °F 78% 30.18 in 10.0 mi Variable 3.5 mph - N/A   Clear
10:53 AM 69.8 °F 60.8 °F 73% 30.18 in 10.0 mi Calm Calm - N/A   Clear
11:53 AM 75.2 °F 62.6 °F 65% 30.18 in 10.0 mi Calm Calm - N/A   Partly Cloudy
12:53 PM 77.0 °F 59.0 °F 54% 30.17 in 10.0 mi Variable 5.8 mph - N/A   Scattered Clouds
1:53 PM 78.8 °F 55.4 °F 44% 30.15 in 10.0 mi Variable 5.8 mph - N/A   Scattered Clouds
2:53 PM 78.8 °F 59.0 °F 51% 30.14 in 10.0 mi Variable 5.8 mph - N/A   Scattered Clouds
3:53 PM 78.8 °F 59.0 °F 51% 30.13 in 10.0 mi Variable 6.9 mph - N/A   Scattered Clouds
4:53 PM 78.8 °F 59.0 °F 51% 30.12 in 10.0 mi East 8.1 mph - N/A   Scattered Clouds
5:53 PM 77.0 °F 60.8 °F 57% 30.12 in 10.0 mi East 5.8 mph - N/A   Scattered Clouds
6:53 PM 75.2 °F 60.8 °F 61% 30.12 in 10.0 mi East 5.8 mph - N/A   Partly Cloudy
8:53 PM 71.6 °F 57.2 °F 60% 30.11 in 10.0 mi Calm Calm - N/A   Clear
9:55 PM 72.5 °F 57.4 °F 59% 30.12 in 10.0 mi Calm Calm - N/A   Overcast
10:15 PM 72.5 °F 57.2 °F 59% 30.12 in 10.0 mi Calm Calm - N/A   Mostly Cloudy
10:35 PM 69.8 °F 58.5 °F 67% 30.12 in 10.0 mi Calm Calm - N/A   Mostly Cloudy
10:55 PM 67.5 °F 59.9 °F 77% 30.12 in 10.0 mi WNW 3.5 mph - N/A   Scattered Clouds
11:15 PM 68.0 °F 58.6 °F 72% 30.12 in 10.0 mi Calm Calm - N/A   Scattered Clouds
11:55 PM 68.5 °F 59.2 °F 72% 30.13 in 10.0 mi Calm Calm - N/A   Mostly Cloudy